Terminal Aerodrome Forecast
Issued by NWS

Home | Current Version | Previous Version | Text Only | Print | Product List | Glossary On
Versions: 1 2 3 4 5 6 7 8 9 10 11 12 13 14 15 16 17 18 19 20 21 22 23 24 25 26 27
000
FTUS42 KCAE 310505 AAB
TAFOGB
TAF AMD
KOGB 310505Z 3105/3124 00000KT P6SM SCT020 BKN090
      TEMPO 3105/3109 BKN020
     FM311000 VRB03KT 3SM BR BKN007
     FM311300 35007KT P6SM SCT015 BKN040
     FM311800 01006KT P6SM SCT050 BKN150=

USA.gov is the U.S. government's official web portal to all federal, state and local government web resources and services.